Regional Weather Roundup
Issued by NWS

Home | Current Version | Previous Version | Text Only | Print | Product List | Glossary On
Versions: 1 2 3 4 5 6 7 8 9 10 11 12 13 14 15 16 17 18 19 20 21 22 23 24 25 26 27 28 29 30 31 32 33 34 35 36 37 38 39 40 41 42 43 44 45 46 47 48 49 50
000
ASUS46 KHNX 021538
RWRCA

NORTHERN AND CENTRAL CA REGIONAL WEATHER ROUNDUP
NATIONAL WEATHER SERVICE SACRAMENTO CA
ISSUED BY NATIONAL WEATHER SERVICE SAN JOAQUIN VALLEY CA
800 AM PDT TUE JUN 02 2015

NOTE: FAIR INDICATES FEW OR NO CLOUDS BELOW 12,000 FEET WITH NO
SIGNIFICANT WEATHER AND/OR OBSTRUCTIONS TO VISIBILITY.

CAZ001-003-021600
NORTHWEST AREA

CITY           SKY/WX    TMP DP  RH WIND       PRES   REMARKS
CRESCENT CITY  CLOUDY    54  54 100 CALM      30.14R FOG
ARCATA         FOG       52  52 100 NW7       30.12S VSB 3/4
SHELTER COVE   NOT AVBL
UKIAH          CLOUDY    60  50  69 NW8       30.07R
$$

CAZ005>008-065-075-021600
BAY AREA

CITY           SKY/WX    TMP DP  RH WIND       PRES   REMARKS
SANTA ROSA     MOSUNNY   56  53  90 CALM      30.04R
SAN RAFAEL     NOT AVBL
NAPA           NOT AVBL
CONCORD        CLOUDY    61  52  72 W8        30.05R
OAKLAND        CLOUDY    59  53  80 W12       30.06R
SAN FRAN ARPT  CLOUDY    60  52  74 W9        30.06R
LIVERMORE      CLOUDY    61  52  72 W8        30.05S
HAYWARD        CLOUDY    59  53  80 W7        30.06R
MOFFETT ARPT   CLOUDY    60  53  77 VRB6      30.07R
SAN JOSE ARPT  PTSUNNY   60  52  74 W7        30.06R
$$

CAZ009-010-034-037-074-021600
CENTRAL COAST

CITY           SKY/WX    TMP DP  RH WIND       PRES   REMARKS
WATSONVILLE    PTSUNNY   64  55  72 S6        30.07R
SALINAS        MOSUNNY   61  55  82 NW6       30.05S
MONTEREY       CLOUDY    55  54  94 W5        30.07R FOG
SAN LUIS OBISP MOSUNNY   59  54  83 W7        30.02S
SANTA MARIA    CLOUDY    56  56 100 W3        30.03R FOG
$$

CAZ015-016-021600
NORTHERN SACRAMENTO VALLEY

CITY           SKY/WX    TMP DP  RH WIND       PRES   REMARKS
REDDING        SUNNY     66  54  65 S7        30.02S
RED BLUFF      MOSUNNY   64  53  67 SE3       30.04R
OROVILLE       SUNNY     63  54  72 S5        30.04S
$$

CAZ016>018-021600
SOUTHERN SACRAMENTO VALLEY

CITY           SKY/WX    TMP DP  RH WIND       PRES   REMARKS
BEALE AFB      SUNNY     64  53  66 S7        30.01R
MARYSVILLE     SUNNY     62  53  72 SE7       30.03R
SAC INTL ARPT  MOSUNNY   61  54  77 SE5       30.01R
MATHER AIRPORT PTSUNNY   59  54  82 S6        30.03R
SAC EXEC ARPT  MOSUNNY   61  54  77 S5        30.02R
VACAVILLE      SUNNY     63  52  67 CALM      30.03R
TRAVIS AFB     SUNNY     61  54  77 W12       30.01R
$$

CAZ019>021-021600
SAN JOAQUIN VALLEY

CITY           SKY/WX    TMP DP  RH WIND       PRES   REMARKS
STOCKTON       SUNNY     63  54  72 NW5       30.02R
MODESTO        SUNNY     64  52  64 N8        30.01S
MERCED         SUNNY     63  53  70 NW14      30.01R
LEMOORE        SUNNY     64  52  64 NW13      30.03R
FRESNO         SUNNY     63  52  67 NW8       30.01R
HANFORD        SUNNY     65  52  62 NW7       30.02R
PORTERVILLE    SUNNY     64  54  68 S5        30.03S
BAKERSFIELD    SUNNY     66  52  60 CALM      30.03S
$$

CAZ011-012-071-021600
NORTHERN MOUNTAINS

CITY           SKY/WX    TMP DP  RH WIND       PRES   REMARKS
YREKA          CLOUDY    53  50  89 NE3       30.09R
MOUNT SHASTA   CLOUDY    56  51  84 CALM      30.08S
ALTURAS        NOT AVBL
$$

CAZ011-012-071-021600
SIERRA NEVADA MTNS

CITY           SKY/WX    TMP DP  RH WIND       PRES   REMARKS
BLUE CANYON    SUNNY     53  34  48 SE7       30.13R
TRUCKEE        MOSUNNY   37  36  93 CALM      30.15S
TAHOE VLY ARPT SUNNY     50  32  50 SE3       30.14S
MAMMOTH LAKES  NOT AVBL
$$

WEATHER.GOV/HANFORD



USA.gov is the U.S. government's official web portal to all federal, state and local government web resources and services.